WB8ZTP Weather Reports


Display with metric or nautical units.
time (UTC)temp
F
wind
direction
speed
MPH
gust
MPH
rain 1hr
in
rain 24hr
in
rain mn
in
humidity
%
barometer
mb
20260504044542 50 155 1.0 5.0 0.00 0.00 0.00 69 1015.6
20260504043043 49 181 1.0 6.0 0.00 0.00 0.00 74 1015.7
20260504041536 48 195 0.0 5.0 0.00 0.00 0.00 77 1015.7
20260504040034 48 159 0.0 2.0 0.00 0.00 0.00 79 1015.8
20260504034532 47 163 0.0 0.0 0.00 0.00 0.00 81 1016.0
20260504033031 47 164 0.0 0.0 0.00 0.00 0.00 81 1016.1
20260504031532 47 164 0.0 0.0 0.00 0.00 0.00 79 1016.2
20260504030028 47 164 0.0 0.0 0.00 0.00 0.00 78 1016.3
20260504024530 48 164 0.0 0.0 0.00 0.00 0.00 76 1016.5
20260504023026 48 165 0.0 2.0 0.00 0.00 0.00 74 1016.6
20260504021526 49 185 0.0 3.0 0.00 0.00 0.00 73 1016.7
20260504020026 49 155 0.0 3.0 0.00 0.00 0.00 73 1016.7
20260504014536 49 203 0.0 0.0 0.00 0.00 0.00 73 1016.7
20260504013035 50 207 0.0 0.0 0.00 0.00 0.00 73 1016.6
20260504011523 50 207 0.0 0.0 0.00 0.00 0.00 70 1016.5
20260504010024 51 207 0.0 0.0 0.00 0.00 0.00 67 1016.5
20260504004527 51 211 0.0 5.0 0.00 0.00 0.00 66 1016.6
20260504003022 51 210 2.0 13.0 0.00 0.00 0.00 64 1016.7
20260504001522 52 225 8.0 16.0 0.00 0.00 0.00 61 1017.0
20260504000021 53 181 3.0 11.0 0.00 0.00 0.00 58 1016.7
20260503234522 54 215 6.0 18.0 0.00 0.00 0.00 56 1016.9
20260503233022 56 271 11.0 19.0 0.00 0.00 0.00 50 1016.8
20260503231519 56 252 6.0 10.0 0.00 0.00 0.00 45 1016.5
20260503230021 57 186 6.0 13.0 0.00 0.00 0.00 45 1016.7
20260503224515 57 199 4.0 12.0 0.00 0.00 0.00 46 1016.7
20260503223015 57 215 6.0 13.0 0.00 0.00 0.00 46 1016.9
20260503221514 58 192 4.0 12.0 0.00 0.00 0.00 43 1016.9
20260503220013 58 248 5.0 15.0 0.00 0.00 0.00 43 1017.1
20260503214512 58 240 7.0 16.0 0.00 0.00 0.00 43 1017.1
20260503213011 58 197 6.0 14.0 0.00 0.00 0.00 44 1017.4
20260503211510 58 219 6.0 16.0 0.00 0.00 0.00 44 1017.3
20260503210008 59 227 7.0 17.0 0.00 0.00 0.00 43 1017.5
20260503204507 58 190 4.0 14.0 0.00 0.00 0.00 44 1017.6
20260503203018 58 212 5.0 19.0 0.00 0.00 0.00 42 1017.6
20260503201504 58 250 8.0 19.0 0.00 0.00 0.00 41 1017.9
20260503200002 59 245 4.0 13.0 0.00 0.00 0.00 45 1017.9
20260503194559 58 238 4.0 15.0 0.00 0.00 0.00 44 1018.2
20260503193058 58 211 7.0 14.0 0.00 0.00 0.00 44 1018.6
20260503191557 58 230 4.0 12.0 0.00 0.00 0.00 47 1018.8
20260503190108 58 215 6.0 12.0 0.00 0.00 0.00 45 1019.1
20260503184552 58 232 6.0 16.0 0.00 0.00 0.00 46 1019.3
20260503183049 57 191 5.0 15.0 0.00 0.00 0.00 48 1019.3
20260503181554 56 188 4.0 15.0 0.00 0.00 0.00 47 1019.7
20260503180052 56 192 6.0 13.0 0.00 0.00 0.00 48 1020.0
20260503174542 57 218 5.0 12.0 0.00 0.00 0.00 49 1020.0
20260503173040 56 173 4.0 16.0 0.00 0.00 0.00 49 1020.3
20260503171539 55 286 2.0 12.0 0.00 0.00 0.00 55 1020.5
20260503081525 32 360 0.0 0.0 0.00 0.00 0.00 91 1020.5
20260503071510 32 360 0.0 0.0 0.00 0.00 0.00 91 1020.5
20260503054502 33 360 0.0 0.0 0.00 0.00 0.00 91 1020.8
20260503053005 33 360 0.0 0.0 0.00 0.00 0.00 91 1020.8
20260503051601 33 360 0.0 0.0 0.00 0.00 0.00 91 1020.8
20260503050100 33 360 0.0 0.0 0.00 0.00 0.00 91 1020.7
20260503044559 33 360 0.0 0.0 0.00 0.00 0.00 91 1020.7